Regional Weather Roundup
Issued by NWS New Orleans/Baton Rouge, LA

Home | Current Version | Previous Version | Graphics & Text | Print | Product List | Glossary On
Versions: 1 2 3 4 5 6 7 8 9 10 11 12 13 14 15 16 17 18 19 20 21 22 23 24 25 26 27 28 29 30 31 32 33 34 35 36 37 38 39 40 41 42 43 44 45 46 47 48 49 50
934
ASUS44 KLIX 300005
RWRLIX
NEW ORLEANS REGIONAL WEATHER ROUNDUP
NATIONAL WEATHER SERVICE NEW ORLEANS LA
700 PM CDT TUE JUL 29 2014

NOTE: "FAIR" INDICATES FEW OR NO CLOUDS BELOW 12,000 FEET WITH NO
      SIGNIFICANT WEATHER AND/OR OBSTRUCTIONS TO VISIBILITY.
      SKY/WX - SKY CONDITION AND SIGNIFICANT WEATHER.
      TMP - AIR TEMPERATURE.     DP    - DEWPOINT TEMPERATURE.
      RH  - RELATIVE HUMIDITY.   PRES  - PRESSURE.
      HI  - HEAT INDEX.          WCI   - WIND CHILL INDEX.

*  THESE STATIONS ARE NOT NWS OR FAA STATIONS AND ARE NOT UNDER
   NWS QUALITY CONTROL.

LAZ038-040-048-061>063-065>067-069-300100-
SOUTHEAST LOUISIANA

CITY           SKY/WX    TMP DP  RH WIND       PRES   REMARKS
N.O. AUDUBON     N/A     88  64  45 MISG        N/A
6HR MIN TEMP:  87; 6HR MAX TEMP:  91;

N.O. INTL ARPT PTSUNNY   86  64  47 N6        30.01S
6HR MIN TEMP:  86; 6HR MAX TEMP:  90;

N.O. LAKEFRONT SUNNY     86  66  51 NW8       30.01S
6HR MIN TEMP:  84; 6HR MAX TEMP:  88;

N.O. DOWNTOWN*   N/A     88  63  42 W5        30.01S
6HR MIN TEMP:  84; 6HR MAX TEMP:  90;

SLIDELL        SUNNY     86  65  49 NW3       30.00S
6HR MIN TEMP:  85; 6HR MAX TEMP:  89;

BATON ROUGE    SUNNY     86  64  47 NE3       30.02S
6HR MIN TEMP:  86; 6HR MAX TEMP:  91;

BOOTHVILLE     PTCLDY    83  67  58 CALM      30.01F
6HR MIN TEMP:  83; 6HR MAX TEMP:  86;

BELLE CHASSE   PTSUNNY   86  61  42 VRB5      30.00S
6HR MIN TEMP:  86; 6HR MAX TEMP:  89;

BOGALUSA*        N/A     86  65  49 NW6       30.02S
6HR MIN TEMP:  85; 6HR MAX TEMP:  89;

GALLIANO*      NOT AVBL
NEW ROADS*       N/A     84  67  56 NW5       30.02F
6HR MIN TEMP:  84; 6HR MAX TEMP:  87;

GONZALES*        N/A     85  66  52 N5        30.01S
6HR MIN TEMP:  84; 6HR MAX TEMP:  89;

HAMMOND*       SUNNY     88  61  40 NW3       30.02F
HOUMA*         MOSUNNY   88  66  48 NE6       30.01S
PORT FOURCHON* CLEAR     86  70  58 N10       30.02S

$$

MSZ070-080>082-300100-
SOUTHERN MISSISSIPPI

CITY           SKY/WX    TMP DP  RH WIND       PRES   REMARKS
MCCOMB         SUNNY     85  64  49 NW9       30.03S
6HR MIN TEMP:  84; 6HR MAX TEMP:  89;

GULFPORT       CLEAR     89  63  41 N9        29.98S
6HR MIN TEMP:  89; 6HR MAX TEMP:  93;

BILOXI         CLEAR     86  64  46 VRB3      29.98F
6HR MIN TEMP:  86; 6HR MAX TEMP:  90;

PASCAGOULA     CLEAR     86  66  51 NW3       29.98S
6HR MIN TEMP:  85; 6HR MAX TEMP:  90;

STENNIS ARPT*  MOSUNNY  N/A N/A N/A VRB3      30.00S

$$

COASTAL OBSERVATIONS
LAKE AND NEARSHORE STATIONS

STATION/POSITION TIME  TEMP    WIND        PRES    WAVE
                       AIR SEA DIR/SP/G            HT/PER
                 (UTC) (F)     (DEG/KT/KT) (MB)    (FT/S)
PASCAGOULA       0000   87     340/  5/  8 1014.8
WAVELAND YACHT   0000   86     340/  9/ 13 1015.0
GRAND ISLE       0000   85 87  360/  7/ 12 1016.7
SOUTHWEST PASS   0000   87 85   20/  9/ 12 1016.5
NEW CANAL        0000   86 86  330/  3/  7 1016.6
SHELL BEACH      0000   85 83  320/ 10/ 12 1015.9

OFFSHORE STATIONS

STATION/POSITION TIME  TEMP    WIND        PRES    WAVE
                       AIR SEA DIR/SP/G            HT/PER
                 (UTC) (F)     (DEG/KT/KT) (MB)    (FT/S)

$$




USA.gov is the U.S. government's official web portal to all federal, state and local government web resources and services.